User: anonymous   Login
Location: Albany
(35.0000°S, 118.0000°E)
Time: 09:59:34
(UTC-05:00)
Language:

Cosmos 1933 - Orbit

View from above orbital plane
View from above orbital plane
View from above satellite
View from above satellite

Ground track
Ground track

The orbit data is extracted from the following two-line orbital elements,

1 18958U 88020A   17016.16540334 -.00000029  00000-0 -42941-5 0  9998
2 18958  82.5286 250.5175 0013273  80.6701 279.6025 15.03125230568694
Epoch (UTC): 16 January 2017 03:58:10
Eccentricity: 0.0013273
inclination: 82.5286°
perigee height: 548 km
apogee height: 566 km
right ascension of ascending node: 250.5175°
argument of perigee: 80.6701°
revolutions per day: 15.03125230
mean anomaly at epoch: 279.6025°
orbit number at epoch: 56869

The dashed part of the orbit path shows where the satellite is in the earth's shadow,  

DLR